Flag for Indonesia Weather past 2 weeks in Manado, North Sulawesi, Indonesia

Now
77 °F

Passing clouds.


Feels Like: 78 °F
Forecast: 75 / 89 °F
Wind: 2 mph from North

Location: Menado / Dr. Sam Ratulangi

Current Time: May 30, 2015 at 2:41:02 AM

Latest Report: May 29, 2015 at 11:30 PM


Visibility: 6 mi

Pressure: 29.89 "Hg

Humidity: 89%

Dew point: 73 °F

Location of ManadoLocation

Historic Weather in Manado — Graph

°F

Manado temperature yesterday

Maximum temperature yesterday: 91 °F (at 10:30 AM)
Minimum temperature yesterday: 72 °F (at 4:30 AM)
Average temperature yesterday: 83 °F

Past Weeks' High & Low Weather Summary

 TemperatureHumidityPressure
High93 °F (May 20, 12:00 PM)100% (May 15, 2:00 AM)29.92 "Hg (May 15, 2:00 AM)
Low70 °F (May 26, 4:30 AM)44% (May 20, 10:30 AM)29.77 "Hg (May 17, 1:30 PM)
Average82 °F76%29.86 "Hg
* Reported May 14 11:00 PM — May 29 11:30 PM, Manado, Weather by CustomWeather, © 2015

Note: Actual official high and low records may vary slightly from our data, if they occured in-between our weather recording intervals... More about our weather records

Advertising

Manado weather history for previous 24 hours

 ConditionsComfort  
Time TempWeatherWind HumidityBarometerVisibility
11:30 PM
Fri, May 29
77 °FPassing clouds.2 mph89%29.89 "Hg6 mi
11:00 PM77 °FPassing clouds.2 mph89%29.89 "HgN/A
10:30 PM77 °FPassing clouds.No wind89%29.92 "Hg6 mi
10:00 PM77 °FPassing clouds.2 mph89%29.92 "Hg6 mi
9:30 PM77 °FPassing clouds.1 mph89%29.89 "Hg6 mi
9:00 PM79 °FPassing clouds.3 mph84%29.89 "Hg6 mi
8:30 PM79 °FPassing clouds.2 mph84%29.89 "Hg6 mi
8:00 PM81 °FPassing clouds.2 mph79%29.89 "Hg6 mi
7:30 PM81 °FPassing clouds.2 mph84%29.86 "Hg6 mi
7:00 PM82 °FPassing clouds.1 mph79%29.86 "Hg6 mi
6:30 PM82 °FPassing clouds.3 mph79%29.86 "HgN/A
6:00 PM82 °FPassing clouds.5 mph79%29.83 "HgN/A
5:30 PM84 °FScattered clouds.6 mph70%29.83 "HgN/A
5:00 PM86 °FScattered clouds.8 mph66%29.83 "HgN/A
4:30 PM88 °FScattered clouds.8 mph62%29.80 "HgN/A
4:00 PM88 °FScattered clouds.9 mph62%29.80 "HgN/A
3:30 PM88 °FScattered clouds.7 mph66%29.80 "HgN/A
3:00 PM90 °FScattered clouds.8 mph63%29.80 "HgN/A
2:30 PM91 °FScattered clouds.6 mph59%29.80 "HgN/A
2:00 PM90 °FScattered clouds.8 mph63%29.80 "HgN/A
1:30 PM90 °FScattered clouds.7 mph63%29.83 "HgN/A
1:00 PM88 °FScattered clouds.7 mph66%29.83 "HgN/A
11:30 AM91 °FScattered clouds.5 mph52%29.86 "HgN/A
11:00 AM91 °FScattered clouds.5 mph56%29.89 "HgN/A
10:30 AM91 °FScattered clouds.5 mph56%29.89 "HgN/A
10:00 AM90 °FPassing clouds.3 mph55%29.89 "HgN/A
9:30 AM90 °FPassing clouds.3 mph55%29.89 "HgN/A
9:00 AM88 °FPassing clouds.1 mph59%29.89 "HgN/A
8:30 AM88 °FPassing clouds.1 mph59%29.92 "HgN/A
8:00 AM84 °FPassing clouds.2 mph70%29.89 "HgN/A
7:30 AM82 °FPassing clouds.2 mph74%29.89 "HgN/A
7:00 AM82 °FPassing clouds.1 mph70%29.89 "HgN/A
6:00 AM73 °FPassing clouds.2 mph94%29.86 "HgN/A
5:00 AM72 °FPassing clouds.1 mph100%29.86 "HgN/A
4:30 AM72 °FPassing clouds.1 mph100%29.83 "HgN/A
2:00 AM75 °FPassing clouds.2 mph89%29.83 "HgN/A
Weather by CustomWeather, © 2015

See weather overviewHow to use our weather pages